Flag for Canada Weather past 2 weeks in Alert, Nunavut, Canada

Now
-4 °F

Partly sunny.


Feels Like: -12 °F
Forecast: -8 / 2 °F
Wind: 3 mph from Northeast

Location: Alert Airport

Current Time: Apr 21, 2015 at 7:59:38 AM

Latest Report: Apr 21, 2015 at 7:00 AM


Visibility: 15 mi

Pressure: 30.02 "Hg

Humidity: 71%

Dew point: -11 °F

Location of AlertLocation

Historic Weather in Alert — Graph

°F

Alert temperature yesterday

Maximum temperature yesterday: 1 °F (at 3:00 AM)
Minimum temperature yesterday: -4 °F (at 5:00 PM)
Average temperature yesterday: -2 °F

Past Weeks' High & Low Weather Summary

 TemperatureHumidityPressure
High1 °F (Apr 20, 3:00 AM)85% (Apr 20, 3:00 AM)30.02 "Hg (Apr 20, 3:00 AM)
Low-35 °F (Apr 11, 4:00 AM)52% (Apr 10, 6:00 AM)29.04 "Hg (Apr 15, 8:00 PM)
Average-13 °F70%29.61 "Hg
* Reported Apr 6 8:00 AM — Apr 21 7:00 AM, Alert, Weather by CustomWeather, © 2015

Note: Actual official high and low records may vary slightly from our data, if they occured in-between our weather recording intervals... More about our weather records

Advertising

Alert weather history for previous 24 hours

 ConditionsComfort  
Time TempWeatherWind HumidityBarometerVisibility
7:00 AM
Tue, Apr 21
-4 °FPartly sunny.3 mph71%30.02 "Hg15 mi
6:00 AM-4 °FScattered clouds.3 mph77%30.02 "Hg15 mi
5:00 AM-4 °FPassing clouds.7 mph71%30.01 "Hg15 mi
4:00 AM-4 °FPassing clouds.8 mph71%30.00 "Hg15 mi
3:00 AM-2 °FLow level haze.18 mph71%29.97 "Hg15 mi
2:00 AM-2 °FPassing clouds.16 mph65%29.96 "Hg15 mi
1:00 AM-4 °FPassing clouds.15 mph71%29.96 "Hg15 mi
12:00 AM-4 °FPassing clouds.10 mph71%29.97 "Hg15 mi
11:00 PM
Mon, Apr 20
-4 °FScattered clouds.12 mph71%29.96 "Hg15 mi
10:00 PM-4 °FScattered clouds.13 mph71%29.96 "Hg15 mi
9:00 PM-4 °FScattered clouds.10 mph77%29.96 "Hg15 mi
8:00 PM-4 °FScattered clouds.9 mph77%29.96 "Hg15 mi
7:00 PM-4 °FPassing clouds.8 mph71%29.95 "Hg15 mi
6:00 PM-4 °FPassing clouds.7 mph71%29.94 "Hg15 mi
5:00 PM-4 °FPassing clouds.3 mph71%29.94 "Hg15 mi
4:00 PM-2 °FPassing clouds.2 mph77%29.93 "Hg15 mi
3:00 PM-2 °FPassing clouds.5 mph77%29.93 "Hg15 mi
2:00 PM0 °FPassing clouds.No wind71%29.93 "Hg15 mi
1:00 PM0 °FPassing clouds.2 mph78%29.93 "Hg15 mi
12:00 PM-2 °FPassing clouds.5 mph77%29.94 "Hg15 mi
11:00 AM0 °FPassing clouds.6 mph71%29.94 "Hg15 mi
10:00 AM-2 °FPassing clouds.6 mph77%29.95 "Hg12 mi
9:00 AM-2 °FScattered clouds.2 mph77%29.95 "Hg12 mi
8:00 AM-2 °FScattered clouds.5 mph84%29.95 "Hg12 mi
7:00 AM0 °FLight snow. Partly sunny.No wind84%29.96 "Hg7 mi
Weather by CustomWeather, © 2015

See weather overviewHow to use our weather pages